Location: Bondula
(6.3703°N, 10.6756°W)
Time: 08:00:30
(UTC+00:00)

CZ-4B R/B - Pass Details

Date: 22 October 2019
Orbit: 487 x 653 km, 97.8° (Epoch: 17 November)

Event Time Altitude Azimuth Distance (km) Brightness Sun altitude
Rises 05:01:28 0° 9° (N) 2,611 6.3 -22.2°
Reaches altitude 10° 05:03:35 10° 8° (N) 1,708 5.3 -21.7°
Maximum altitude 05:07:14 77° 282° (WNW) 508 2.4 -20.8°
Drops below altitude 10° 05:10:48 10° 195° (SSW) 1,671 5.2 -19.9°
Sets 05:12:51 0° 194° (SSW) 2,548 6.2 -19.4°
